Home > Weather > Faridabad > Past weeks

Flag for India Past Weather in Faridabad, Haryana, India — Yesterday and Last 2 Weeks

Now
81 °F

Thunderstorms. Partly cloudy.


Feels Like: 82 °F
Forecast: 78 / 103 °F
Wind: 8 mph from Southwest

Location: New Delhi Palam Airport

Current Time: May 30, 2016 at 12:54:19 AM

Latest Report: May 30, 2016 at 12:30 AM


Visibility: 1 mi

Pressure: 29.62 "Hg

Humidity: 58%

Dew Point: 64 °F

Location of FaridabadLocation

Past Weather in Faridabad — Graph

°F

Faridabad Temperature Yesterday

Maximum temperature yesterday: 97 °F (at 4:00 PM)
Minimum temperature yesterday: 73 °F (at 2:00 AM)
Average temperature yesterday: 85 °F

High & Low Weather Summary for the Past Weeks

 TemperatureHumidityPressure
High117 °F (May 18, 3:30 PM)83% (May 23, 7:30 PM)29.74 "Hg (May 23, 7:30 PM)
Low73 °F (May 29, 2:00 AM)8% (May 18, 2:00 PM)29.39 "Hg (May 20, 5:00 PM)
Average95 °F37%29.54 "Hg
* Reported May 14 11:30 PM — May 29 11:30 PM, Faridabad, Weather by CustomWeather, © 2016

Note: Actual official high and low records may vary slightly from our data, if they occured in-between our weather recording intervals... More about our weather records

Advertising

Faridabad Weather History for the Previous 24 Hours

Scroll right to see more
 ConditionsComfort  
Time TempWeatherWind HumidityBarometerVisibility
11:30 PM
Sun, May 29
82 °FThunderstorms. Partly cloudy.14 mph58%29.59 "Hg1 mi
11:00 PM82 °FThunderstorms. Partly cloudy.17 mph58%29.59 "Hg1 mi
10:30 PM84 °FThunderstorms. Partly cloudy.21 mph43%29.59 "Hg1 mi
10:00 PM84 °FThunderstorms. Partly cloudy.21 mph43%29.59 "Hg1 mi
9:30 PM81 °FThunderstorms. Partly cloudy.12 mph51%29.68 "Hg1 mi
9:00 PM77 °FThunderstorms. Partly cloudy.17 mph61%29.68 "Hg1 mi
8:30 PM77 °FThunderstorms. Partly cloudy.23 mph61%29.68 "Hg1 mi
8:00 PM88 °FPartly cloudy.8 mph55%29.59 "Hg2 mi
7:30 PM90 °FBroken clouds.12 mph52%29.56 "Hg2 mi
7:00 PM91 °FScattered clouds.12 mph46%29.53 "Hg2 mi
6:30 PM93 °FScattered clouds.14 mph41%29.53 "Hg2 mi
6:00 PM95 °FScattered clouds.13 mph39%29.53 "Hg2 mi
5:30 PM95 °FScattered clouds.14 mph39%29.53 "Hg2 mi
5:00 PM97 °FHaze.14 mph37%29.53 "Hg2 mi
4:30 PM97 °FHaze.14 mph37%29.56 "Hg2 mi
4:00 PM97 °FHaze.13 mph37%29.56 "Hg2 mi
3:30 PM95 °FHaze.14 mph39%29.59 "Hg2 mi
3:00 PM95 °FHaze.15 mph39%29.59 "Hg2 mi
2:30 PM95 °FHaze.13 mph39%29.59 "Hg2 mi
2:00 PM95 °FHaze.13 mph41%29.62 "Hg2 mi
1:30 PM93 °FHaze.12 mph44%29.62 "Hg2 mi
1:00 PM91 °FHaze.8 mph46%29.62 "Hg2 mi
12:30 PM91 °FHaze.9 mph44%29.65 "Hg2 mi
12:00 PM91 °FHaze.9 mph44%29.65 "Hg2 mi
11:30 AM90 °FScattered clouds.9 mph46%29.65 "Hg2 mi
11:00 AM88 °FBroken clouds.12 mph49%29.65 "Hg2 mi
10:30 AM88 °FBroken clouds.9 mph49%29.65 "Hg2 mi
9:30 AM86 °FScattered clouds.N/A52%29.65 "Hg2 mi
9:00 AM86 °FScattered clouds.5 mph52%29.62 "Hg2 mi
8:30 AM84 °FScattered clouds.8 mph51%29.62 "Hg2 mi
8:00 AM84 °FBroken clouds.8 mph51%29.62 "Hg2 mi
7:30 AM82 °FBroken clouds.7 mph48%29.59 "Hg1 mi
7:00 AM82 °FBroken clouds.7 mph48%29.59 "Hg1 mi
6:30 AM81 °FBroken clouds.7 mph58%29.59 "Hg1 mi
6:00 AM77 °FBroken clouds.12 mph69%29.56 "Hg1 mi
5:30 AM77 °FPartly cloudy.9 mph69%29.56 "Hg1 mi
5:00 AM77 °FPartly cloudy.12 mph69%29.56 "Hg1 mi
4:30 AM75 °FThunderstorms. Partly cloudy.9 mph78%29.56 "Hg1 mi
4:00 AM75 °FThunderstorms. Partly cloudy.7 mph78%29.53 "Hg1 mi
3:30 AM75 °FThunderstorms. Partly cloudy.7 mph78%29.53 "Hg2 mi
3:00 AM75 °FThunderstorms. Partly cloudy.10 mph74%29.56 "Hg2 mi
2:30 AM75 °FThunderstorms. Partly cloudy.9 mph74%29.56 "Hg2 mi
2:00 AM73 °FThunderstorms. Partly cloudy.9 mph78%29.56 "Hg2 mi
1:30 AM75 °FThunderstorms. Partly cloudy.9 mph74%29.56 "Hg2 mi
1:00 AM79 °FThunderstorms. Partly cloudy.12 mph61%29.62 "Hg2 mi
12:30 AM79 °FThunderstorms. Partly cloudy.12 mph61%29.62 "Hg2 mi
Weather by CustomWeather, © 2016

See weather overviewHow to use our weather pages